カタログに戻る

STARLINK-36364

運用中通信SSO
NORAD 67978·PAYLOAD·🇺🇸 United States

打ち上げ Feb 25, 2026 から Vandenberg Space Force Base

Loading…

次のパス (今後24時間)

TLE

最新Source: CelesTrak SupGP

元期: Sep 15, 2026, 03:28 UTC

1 67978C 26038T   26258.14493056 -.00053750  00000+0 -16687-2 0  2580
2 67978  97.2843 266.6162 0001468  93.1827   1.9857 15.33463394    12

AllMySatでSTARLINK-36364をリアルタイム追跡

Download on the App Store